LVFTR SADF-SCEL

Flight info

Callsign LVFTR
Flight time 1h 34m
Altitude 34000
Route DCT PAL DCT NEPIS DCT NIN UL405 TOSOR UT687 UMKAL UMKAL7C
Aircraft C700/M-SBDGHM1RWXY/LB2

Departure

Time 2026-04-16 22:31
Airport San Fernando Airport (SADF)

Arrival

Time 2026-04-17 00:06
Airport Comodoro Arturo Merino Benítez International Airport (SCEL)
Time Latitude Longitude Altitude Speed Heading
2026-04-16 22:18 -34.45551 -58.58378 21 ft 0 kts 201°
2026-04-16 22:25 -34.45547 -58.58376 21 ft 2 kts 182°
2026-04-16 22:26 -34.45532 -58.58383 25 ft 2 kts 137°
2026-04-16 22:26 -34.45518 -58.58395 24 ft 2 kts 135°
2026-04-16 22:26 -34.45515 -58.58408 21 ft 0 kts 66°
2026-04-16 22:28 -34.45496 -58.58361 21 ft 15 kts 64°
2026-04-16 22:28 -34.45441 -58.58227 21 ft 19 kts 64°
2026-04-16 22:28 -34.45378 -58.58072 21 ft 22 kts 60°
2026-04-16 22:29 -34.45361 -58.58038 21 ft 8 kts 59°
2026-04-16 22:29 -34.45275 -58.58006 21 ft 14 kts 323°
2026-04-16 22:29 -34.45185 -58.58072 21 ft 17 kts 329°
2026-04-16 22:29 -34.45116 -58.58124 21 ft 18 kts 327°
2026-04-16 22:30 -34.44997 -58.58209 21 ft 21 kts 330°
2026-04-16 22:30 -34.44885 -58.58299 21 ft 9 kts 317°
2026-04-16 22:30 -34.44856 -58.58372 21 ft 11 kts 262°
2026-04-16 22:30 -34.44867 -58.58397 23 ft 0 kts 226°
2026-04-16 22:31 -34.44949 -58.58497 21 ft 61 kts 224°
2026-04-16 22:31 -34.45499 -58.59134 22 ft 151 kts 224°
2026-04-16 22:31 -34.46068 -58.59794 296 ft 182 kts 224°
2026-04-16 22:31 -34.47268 -58.60652 869 ft 232 kts 191°
2026-04-16 22:32 -34.48881 -58.60431 1300 ft 219 kts 163°
2026-04-16 22:32 -34.50215 -58.59997 1819 ft 179 kts 166°
2026-04-16 22:32 -34.51337 -58.59782 2316 ft 155 kts 175°
2026-04-16 22:32 -34.52550 -58.59875 2848 ft 194 kts 184°
2026-04-16 22:33 -34.54043 -58.60113 3413 ft 233 kts 185°
2026-04-16 22:33 -34.55539 -58.60389 4051 ft 248 kts 187°
2026-04-16 22:33 -34.57197 -58.61088 4805 ft 259 kts 205°
2026-04-16 22:33 -34.58696 -58.62335 5559 ft 269 kts 219°
2026-04-16 22:34 -34.59919 -58.64133 6346 ft 279 kts 235°
2026-04-16 22:34 -34.60683 -58.66311 7101 ft 286 kts 252°
2026-04-16 22:34 -34.60903 -58.68737 7882 ft 292 kts 270°
2026-04-16 22:34 -34.60792 -58.71214 8710 ft 296 kts 271°
2026-04-16 22:35 -34.60704 -58.73727 9568 ft 299 kts 271°
2026-04-16 22:35 -34.60608 -58.76292 10417 ft 313 kts 271°
2026-04-16 22:35 -34.60504 -58.78961 11320 ft 321 kts 271°
2026-04-16 22:35 -34.60396 -58.81693 12284 ft 326 kts 271°
2026-04-16 22:36 -34.60290 -58.84453 13306 ft 339 kts 271°
2026-04-16 22:36 -34.60177 -58.87391 14342 ft 356 kts 271°
2026-04-16 22:36 -34.60056 -58.90448 15445 ft 368 kts 271°
2026-04-16 22:36 -34.59930 -58.93601 16635 ft 377 kts 272°
2026-04-16 22:37 -34.59803 -58.96803 17905 ft 383 kts 272°
2026-04-16 22:37 -34.59672 -59.00051 19063 ft 387 kts 272°
2026-04-16 22:37 -34.59540 -59.03291 20234 ft 389 kts 272°
2026-04-16 22:37 -34.59409 -59.06570 21452 ft 389 kts 272°
2026-04-16 22:38 -34.59273 -59.09896 22733 ft 388 kts 272°
2026-04-16 22:38 -34.59143 -59.13037 23700 ft 392 kts 272°
2026-04-16 22:38 -34.59002 -59.16447 24517 ft 398 kts 272°
2026-04-16 22:38 -34.58860 -59.19837 25346 ft 405 kts 273°
2026-04-16 22:39 -34.58716 -59.23272 26214 ft 409 kts 273°
2026-04-16 22:39 -34.58569 -59.26747 27110 ft 412 kts 273°
2026-04-16 22:39 -34.58422 -59.30219 28030 ft 413 kts 273°
2026-04-16 22:39 -34.58279 -59.33553 28928 ft 414 kts 274°
2026-04-16 22:40 -34.58128 -59.37060 29882 ft 416 kts 274°
2026-04-16 22:40 -34.57976 -59.40563 30695 ft 416 kts 274°
2026-04-16 22:40 -34.57825 -59.44026 31501 ft 416 kts 274°
2026-04-16 22:40 -34.57671 -59.47521 32332 ft 414 kts 274°
2026-04-16 22:41 -34.57517 -59.51002 33166 ft 412 kts 274°
2026-04-16 22:41 -34.57361 -59.54498 33774 ft 418 kts 275°
2026-04-16 22:41 -34.57198 -59.58090 33771 ft 437 kts 275°
2026-04-16 22:41 -34.57073 -59.61856 33794 ft 455 kts 272°
2026-04-16 22:42 -34.57023 -59.65762 33808 ft 472 kts 272°
2026-04-16 22:42 -34.56948 -59.69815 33805 ft 488 kts 273°
2026-04-16 22:42 -34.56785 -59.78131 33811 ft 495 kts 272°
2026-04-16 22:43 -34.56637 -59.86423 33811 ft 494 kts 273°
2026-04-16 22:43 -34.56468 -59.94776 33828 ft 494 kts 273°
2026-04-16 22:44 -34.56303 -60.03128 33813 ft 494 kts 273°
2026-04-16 22:44 -34.56127 -60.11418 33813 ft 494 kts 273°
2026-04-16 22:45 -34.55948 -60.19767 33820 ft 493 kts 273°
2026-04-16 22:45 -34.55762 -60.28095 33821 ft 492 kts 273°
2026-04-16 22:46 -34.55572 -60.36398 33824 ft 491 kts 273°
2026-04-16 22:46 -34.55376 -60.44694 33821 ft 491 kts 273°
2026-04-16 22:47 -34.55176 -60.52921 33824 ft 491 kts 273°
2026-04-16 22:47 -34.54969 -60.61180 33826 ft 490 kts 273°
2026-04-16 22:48 -34.54791 -60.68150 33830 ft 489 kts 273°
2026-04-16 22:48 -34.54706 -60.71423 33826 ft 488 kts 273°
2026-04-16 22:49 -34.54489 -60.79622 33832 ft 487 kts 273°
2026-04-16 22:49 -34.54266 -60.87816 33836 ft 486 kts 274°
2026-04-16 22:50 -34.53727 -60.95939 33832 ft 482 kts 282°
2026-04-16 22:50 -34.52480 -61.03962 33840 ft 484 kts 282°
2026-04-16 22:51 -34.51246 -61.11997 33839 ft 484 kts 282°
2026-04-16 22:51 -34.49993 -61.20021 33847 ft 485 kts 282°
2026-04-16 22:52 -34.48750 -61.28018 33847 ft 485 kts 282°
2026-04-16 22:52 -34.47485 -61.36063 33849 ft 486 kts 282°
2026-04-16 22:53 -34.46219 -61.44122 33848 ft 487 kts 282°
2026-04-16 22:53 -34.44941 -61.52197 33851 ft 488 kts 283°
2026-04-16 22:54 -34.43652 -61.60291 33856 ft 489 kts 283°
2026-04-16 22:54 -34.42351 -61.68381 33854 ft 487 kts 283°
2026-04-16 22:55 -34.41056 -61.76422 33860 ft 484 kts 283°
2026-04-16 22:55 -34.39766 -61.84390 33855 ft 483 kts 283°
2026-04-16 22:56 -34.38470 -61.92362 33862 ft 481 kts 283°
2026-04-16 22:56 -34.37829 -61.96247 34028 ft 470 kts 277°
2026-04-16 22:56 -34.37200 -62.00121 33915 ft 471 kts 277°
2026-04-16 22:57 -34.35929 -62.07898 33868 ft 471 kts 277°
2026-04-16 22:57 -34.34643 -62.15688 33863 ft 471 kts 277°
2026-04-16 22:58 -34.33369 -62.23404 33862 ft 470 kts 277°
2026-04-16 22:58 -34.32080 -62.31163 33862 ft 469 kts 277°
2026-04-16 22:59 -34.30790 -62.38904 33865 ft 469 kts 277°
2026-04-16 22:59 -34.29495 -62.46634 33862 ft 468 kts 277°
2026-04-16 23:00 -34.28206 -62.54311 33862 ft 468 kts 277°
2026-04-16 23:00 -34.26901 -62.62037 33862 ft 467 kts 277°
2026-04-16 23:01 -34.25605 -62.69694 33863 ft 467 kts 277°
2026-04-16 23:01 -34.24296 -62.77387 33863 ft 466 kts 277°
2026-04-16 23:02 -34.22986 -62.85057 33866 ft 466 kts 278°
2026-04-16 23:02 -34.21672 -62.92721 33866 ft 465 kts 278°
2026-04-16 23:03 -34.20361 -63.00332 33866 ft 464 kts 278°
2026-04-16 23:03 -34.19041 -63.07976 33864 ft 464 kts 278°
2026-04-16 23:04 -34.17715 -63.15616 33865 ft 463 kts 278°
2026-04-16 23:04 -34.16395 -63.23197 33855 ft 462 kts 278°
2026-04-16 23:05 -34.15066 -63.30799 33855 ft 462 kts 278°
2026-04-16 23:05 -34.13691 -63.38389 33855 ft 462 kts 280°
2026-04-16 23:06 -34.12204 -63.45919 33858 ft 461 kts 279°
2026-04-16 23:06 -34.10734 -63.53424 33858 ft 461 kts 280°
2026-04-16 23:07 -34.09244 -63.60941 33859 ft 460 kts 280°
2026-04-16 23:07 -34.07755 -63.68460 33858 ft 460 kts 280°
2026-04-16 23:08 -34.06261 -63.75962 33857 ft 459 kts 280°
2026-04-16 23:08 -34.04765 -63.83455 33856 ft 459 kts 280°
2026-04-16 23:09 -34.03272 -63.90919 33859 ft 459 kts 280°
2026-04-16 23:09 -34.01784 -63.98372 33861 ft 460 kts 280°
2026-04-16 23:10 -34.00278 -64.05862 33859 ft 460 kts 280°
2026-04-16 23:10 -33.98768 -64.13363 33862 ft 460 kts 280°
2026-04-16 23:11 -33.97512 -64.19578 33865 ft 460 kts 280°
2026-04-16 23:11 -33.95737 -64.28332 33865 ft 459 kts 280°
2026-04-16 23:12 -33.94472 -64.34549 33860 ft 459 kts 281°
2026-04-16 23:12 -33.92958 -64.41970 33858 ft 458 kts 281°
2026-04-16 23:13 -33.91433 -64.49418 33856 ft 456 kts 281°
2026-04-16 23:13 -33.90174 -64.56892 33863 ft 454 kts 278°
2026-04-16 23:14 -33.88942 -64.64313 33858 ft 454 kts 278°
2026-04-16 23:14 -33.87723 -64.71769 33865 ft 453 kts 278°
2026-04-16 23:15 -33.85875 -64.82914 33857 ft 452 kts 278°
2026-04-16 23:16 -33.84651 -64.90291 33860 ft 451 kts 278°
2026-04-16 23:16 -33.83415 -64.97692 33861 ft 451 kts 278°
2026-04-16 23:17 -33.82177 -65.05084 33869 ft 451 kts 278°
2026-04-16 23:17 -33.80932 -65.12485 33872 ft 451 kts 278°
2026-04-16 23:18 -33.79690 -65.19848 33873 ft 451 kts 278°
2026-04-16 23:18 -33.78440 -65.27223 33878 ft 452 kts 279°
2026-04-16 23:19 -33.77180 -65.34631 33876 ft 452 kts 279°
2026-04-16 23:19 -33.75914 -65.42041 33876 ft 452 kts 279°
2026-04-16 23:20 -33.74654 -65.49393 33878 ft 451 kts 279°
2026-04-16 23:20 -33.73381 -65.56792 33871 ft 451 kts 279°
2026-04-16 23:21 -33.72112 -65.64146 33866 ft 451 kts 279°
2026-04-16 23:21 -33.70832 -65.71530 33865 ft 450 kts 279°
2026-04-16 23:22 -33.69553 -65.78879 33859 ft 449 kts 279°
2026-04-16 23:22 -33.68279 -65.86175 33859 ft 448 kts 279°
2026-04-16 23:23 -33.66995 -65.93505 33852 ft 448 kts 279°
2026-04-16 23:23 -33.65714 -66.00784 33855 ft 447 kts 279°
2026-04-16 23:24 -33.64423 -66.08101 33850 ft 446 kts 279°
2026-04-16 23:24 -33.63132 -66.15385 33850 ft 446 kts 279°
2026-04-16 23:25 -33.61834 -66.22683 33847 ft 446 kts 280°
2026-04-16 23:25 -33.60545 -66.29911 33851 ft 446 kts 280°
2026-04-16 23:26 -33.59238 -66.37205 33853 ft 446 kts 280°
2026-04-16 23:26 -33.57931 -66.44478 33849 ft 446 kts 280°
2026-04-16 23:27 -33.56626 -66.51714 33845 ft 445 kts 280°
2026-04-16 23:27 -33.55312 -66.58973 33839 ft 445 kts 281°
2026-04-16 23:28 -33.53995 -66.66219 33829 ft 444 kts 281°
2026-04-16 23:28 -33.52676 -66.73458 33829 ft 444 kts 281°
2026-04-16 23:29 -33.51359 -66.80657 33830 ft 444 kts 281°
2026-04-16 23:29 -33.50031 -66.87893 33830 ft 444 kts 281°
2026-04-16 23:29 -33.49362 -66.91531 33514 ft 446 kts 281°
2026-04-16 23:30 -33.48691 -66.95166 33170 ft 444 kts 281°
2026-04-16 23:30 -33.48021 -66.98792 32912 ft 445 kts 281°
2026-04-16 23:30 -33.47351 -67.02422 32680 ft 447 kts 281°
2026-04-16 23:30 -33.46682 -67.06030 32459 ft 448 kts 281°
2026-04-16 23:31 -33.46002 -67.09692 32226 ft 450 kts 281°
2026-04-16 23:31 -33.45320 -67.13355 32002 ft 451 kts 281°
2026-04-16 23:31 -33.44635 -67.17037 31778 ft 452 kts 281°
2026-04-16 23:31 -33.43948 -67.20720 31556 ft 453 kts 281°
2026-04-16 23:32 -33.43267 -67.24363 31342 ft 455 kts 281°
2026-04-16 23:32 -33.42572 -67.28073 31119 ft 456 kts 281°
2026-04-16 23:32 -33.41877 -67.31778 30906 ft 457 kts 281°
2026-04-16 23:32 -33.41180 -67.35493 30693 ft 458 kts 281°
2026-04-16 23:33 -33.40478 -67.39216 30482 ft 459 kts 281°
2026-04-16 23:33 -33.39774 -67.42949 30268 ft 459 kts 281°
2026-04-16 23:33 -33.39078 -67.46631 30061 ft 458 kts 281°
2026-04-16 23:33 -33.38375 -67.50350 29853 ft 457 kts 281°
2026-04-16 23:34 -33.37673 -67.54054 29845 ft 456 kts 281°
2026-04-16 23:34 -33.36262 -67.61482 29841 ft 457 kts 281°
2026-04-16 23:35 -33.34857 -67.68846 29851 ft 457 kts 281°
2026-04-16 23:35 -33.33436 -67.76270 29848 ft 457 kts 281°
2026-04-16 23:36 -33.32015 -67.83674 29843 ft 456 kts 281°
2026-04-16 23:36 -33.30599 -67.91033 29843 ft 456 kts 281°
2026-04-16 23:37 -33.29175 -67.98405 29848 ft 454 kts 281°
2026-04-16 23:37 -33.27745 -68.05784 29848 ft 453 kts 281°
2026-04-16 23:38 -33.26329 -68.13063 29845 ft 452 kts 281°
2026-04-16 23:38 -33.24900 -68.20391 29838 ft 451 kts 281°
2026-04-16 23:39 -33.23467 -68.27709 29846 ft 451 kts 281°
2026-04-16 23:39 -33.22041 -68.34970 29848 ft 451 kts 282°
2026-04-16 23:40 -33.20603 -68.42267 29845 ft 451 kts 282°
2026-04-16 23:40 -33.19162 -68.49563 29843 ft 451 kts 282°
2026-04-16 23:41 -33.17726 -68.56799 29845 ft 451 kts 282°
2026-04-16 23:41 -33.16277 -68.64081 29847 ft 450 kts 282°
2026-04-16 23:42 -33.14769 -68.71622 29851 ft 450 kts 282°
2026-04-16 23:42 -33.13366 -68.78614 29853 ft 449 kts 282°
2026-04-16 23:43 -33.11909 -68.85864 29857 ft 449 kts 282°
2026-04-16 23:43 -33.10453 -68.93078 29862 ft 449 kts 282°
2026-04-16 23:44 -33.08985 -69.00334 29876 ft 449 kts 282°
2026-04-16 23:44 -33.07509 -69.07600 29892 ft 450 kts 282°
2026-04-16 23:45 -33.06041 -69.14810 29921 ft 451 kts 282°
2026-04-16 23:45 -33.04550 -69.22095 29938 ft 452 kts 282°
2026-04-16 23:46 -33.03067 -69.29340 29951 ft 451 kts 282°
2026-04-16 23:46 -33.01576 -69.36584 29987 ft 450 kts 282°
2026-04-16 23:47 -33.00078 -69.43850 30022 ft 449 kts 282°
2026-04-16 23:47 -32.98588 -69.51047 30042 ft 447 kts 282°
2026-04-16 23:48 -32.97090 -69.58265 30054 ft 446 kts 282°
2026-04-16 23:48 -32.95593 -69.65447 29565 ft 443 kts 282°
2026-04-16 23:48 -32.94865 -69.68937 29103 ft 438 kts 282°
2026-04-16 23:49 -32.94130 -69.72452 28638 ft 434 kts 282°
2026-04-16 23:49 -32.93401 -69.75935 28198 ft 431 kts 282°
2026-04-16 23:49 -32.92677 -69.79387 27765 ft 429 kts 282°
2026-04-16 23:49 -32.91956 -69.82822 27161 ft 423 kts 282°
2026-04-16 23:50 -32.91246 -69.86195 26568 ft 419 kts 282°
2026-04-16 23:50 -32.90541 -69.89549 25972 ft 415 kts 282°
2026-04-16 23:50 -32.89838 -69.92872 25382 ft 411 kts 282°
2026-04-16 23:50 -32.89155 -69.96114 24800 ft 407 kts 282°
2026-04-16 23:51 -32.88484 -69.99381 24238 ft 403 kts 280°
2026-04-16 23:51 -32.88096 -70.02663 24165 ft 400 kts 275°
2026-04-16 23:51 -32.87805 -70.05970 24018 ft 403 kts 275°
2026-04-16 23:51 -32.87484 -70.09270 23775 ft 400 kts 275°
2026-04-16 23:52 -32.87178 -70.12554 23481 ft 398 kts 275°
2026-04-16 23:52 -32.86888 -70.15807 23112 ft 398 kts 275°
2026-04-16 23:52 -32.86589 -70.19084 22654 ft 396 kts 276°
2026-04-16 23:52 -32.86285 -70.22331 22192 ft 399 kts 276°
2026-04-16 23:53 -32.85977 -70.25641 21752 ft 396 kts 276°
2026-04-16 23:53 -32.85679 -70.28840 21260 ft 392 kts 276°
2026-04-16 23:53 -32.85381 -70.32059 20771 ft 392 kts 277°
2026-04-16 23:53 -32.85079 -70.35297 20278 ft 391 kts 277°
2026-04-16 23:54 -32.84776 -70.38510 19791 ft 391 kts 277°
2026-04-16 23:54 -32.84522 -70.41247 19390 ft 389 kts 277°
2026-04-16 23:54 -32.84224 -70.44466 18913 ft 391 kts 278°
2026-04-16 23:54 -32.83919 -70.47678 18451 ft 389 kts 278°
2026-04-16 23:55 -32.83615 -70.50883 17933 ft 389 kts 278°
2026-04-16 23:55 -32.83317 -70.54067 17402 ft 386 kts 278°
2026-04-16 23:55 -32.83024 -70.57198 16892 ft 384 kts 278°
2026-04-16 23:55 -32.82724 -70.60346 16390 ft 382 kts 278°
2026-04-16 23:56 -32.82675 -70.63514 15836 ft 385 kts 269°
2026-04-16 23:56 -32.83065 -70.66663 15252 ft 385 kts 261°
2026-04-16 23:56 -32.83879 -70.69717 14667 ft 388 kts 252°
2026-04-16 23:56 -32.85087 -70.72567 14100 ft 392 kts 243°
2026-04-16 23:57 -32.86704 -70.75204 13485 ft 395 kts 234°
2026-04-16 23:57 -32.88660 -70.77514 12877 ft 397 kts 224°
2026-04-16 23:57 -32.90082 -70.78793 12472 ft 363 kts 217°
2026-04-16 23:57 -32.92870 -70.80564 11618 ft 329 kts 206°
2026-04-16 23:58 -32.95023 -70.81427 10967 ft 322 kts 198°
2026-04-16 23:58 -32.96476 -70.81793 10550 ft 319 kts 192°
2026-04-16 23:58 -32.98673 -70.82119 9893 ft 317 kts 188°
2026-04-16 23:58 -33.00845 -70.82376 9104 ft 310 kts 181°
2026-04-16 23:59 -33.02949 -70.82235 8360 ft 302 kts 176°
2026-04-16 23:59 -33.05034 -70.82122 7599 ft 295 kts 178°
2026-04-16 23:59 -33.07043 -70.82046 6858 ft 276 kts 178°
2026-04-16 23:59 -33.08856 -70.81944 6134 ft 245 kts 176°
2026-04-17 00:00 -33.10471 -70.81846 6029 ft 236 kts 177°
2026-04-17 00:00 -33.12089 -70.81759 6025 ft 231 kts 177°
2026-04-17 00:00 -33.13680 -70.81670 6025 ft 227 kts 177°
2026-04-17 00:00 -33.15282 -70.81583 5853 ft 231 kts 177°
2026-04-17 00:01 -33.16874 -70.81494 5618 ft 227 kts 177°
2026-04-17 00:01 -33.18441 -70.81408 5393 ft 224 kts 177°
2026-04-17 00:01 -33.19997 -70.81323 5169 ft 222 kts 177°
2026-04-17 00:01 -33.21503 -70.81242 4963 ft 210 kts 177°
2026-04-17 00:02 -33.22832 -70.81168 4739 ft 180 kts 177°
2026-04-17 00:02 -33.24066 -70.81098 4491 ft 174 kts 177°
2026-04-17 00:02 -33.25243 -70.81034 4272 ft 157 kts 178°
2026-04-17 00:02 -33.26318 -70.80974 4027 ft 152 kts 178°
2026-04-17 00:03 -33.27361 -70.80918 3740 ft 148 kts 178°
2026-04-17 00:03 -33.28369 -70.80865 3438 ft 146 kts 178°
2026-04-17 00:03 -33.29375 -70.80801 3117 ft 144 kts 178°
2026-04-17 00:03 -33.30364 -70.80750 2790 ft 139 kts 178°
2026-04-17 00:04 -33.31291 -70.80700 2603 ft 137 kts 178°
2026-04-17 00:04 -33.32269 -70.80649 2414 ft 137 kts 178°
2026-04-17 00:04 -33.33240 -70.80590 2266 ft 141 kts 177°
2026-04-17 00:04 -33.34232 -70.80530 2137 ft 143 kts 177°
2026-04-17 00:05 -33.35225 -70.80491 2004 ft 142 kts 178°
2026-04-17 00:05 -33.35860 -70.80454 1878 ft 133 kts 175°
2026-04-17 00:05 -33.36745 -70.80405 1690 ft 127 kts 175°
2026-04-17 00:05 -33.37624 -70.80351 1577 ft 123 kts 172°
2026-04-17 00:06 -33.38317 -70.80309 1567 ft 71 kts 178°
2026-04-17 00:06 -33.38655 -70.80296 1568 ft 24 kts 178°
2026-04-17 00:06 -33.38824 -70.80287 1569 ft 26 kts 177°
2026-04-17 00:06 -33.39005 -70.80277 1568 ft 26 kts 177°
2026-04-17 00:07 -33.39196 -70.80258 1567 ft 29 kts 171°
2026-04-17 00:07 -33.39387 -70.80158 1564 ft 32 kts 149°
2026-04-17 00:07 -33.39426 -70.80129 1562 ft 0 kts 147°
2026-04-17 00:08 -33.39457 -70.80105 1561 ft 14 kts 147°
2026-04-17 00:08 -33.39483 -70.80082 1561 ft 0 kts 137°
2026-04-17 00:09 -33.39510 -70.80045 1560 ft 18 kts 124°
2026-04-17 00:09 -33.39526 -70.79848 1559 ft 27 kts 88°
2026-04-17 00:10 -33.39518 -70.79647 1559 ft 9 kts 88°
2026-04-17 00:10 -33.39512 -70.79433 1559 ft 38 kts 88°
2026-04-17 00:10 -33.39495 -70.79161 1559 ft 16 kts 67°
2026-04-17 00:10 -33.39381 -70.79141 1559 ft 19 kts 356°
2026-04-17 00:11 -33.39260 -70.79147 1559 ft 10 kts 359°
2026-04-17 00:11 -33.39194 -70.79148 1559 ft 7 kts 358°
2026-04-17 00:11 -33.39132 -70.79159 1559 ft 9 kts 324°
2026-04-17 00:11 -33.39116 -70.79208 1559 ft 4 kts 265°
2026-04-17 00:12 -33.39116 -70.79209 1559 ft 0 kts 265°